| time (UTC) | temp F | wind direction | speed MPH | gust MPH | rain 1hr in | rain 24hr in | rain mn in | humidity % | barometer mb |
| 20260509074532 | 55 | 214 | 7.0 | 12.0 | 0.00 | 0.00 | 0.00 | 66 | 1023.3 |
| 20260509073108 | 55 | 208 | 8.0 | 13.0 | 0.00 | 0.00 | 0.00 | 65 | 1023.4 |
| 20260509070033 | 56 | 225 | 5.0 | 11.0 | 0.00 | 0.00 | 0.00 | 65 | 1023.4 |
| 20260509060032 | 56 | 216 | 6.0 | 11.0 | 0.00 | 0.00 | 0.00 | 63 | 1023.7 |
| 20260509054536 | 57 | 216 | 7.0 | 12.0 | 0.00 | 0.00 | 0.00 | 62 | 1023.7 |
| 20260509051535 | 57 | 215 | 6.0 | 11.0 | 0.00 | 0.00 | 0.00 | 61 | 1023.7 |
| 20260509044535 | 57 | 209 | 7.0 | 11.0 | 0.00 | 0.00 | 0.00 | 61 | 1023.5 |
| 20260509040152 | 56 | 204 | 5.0 | 10.0 | 0.00 | 0.00 | 0.00 | 61 | 1022.9 |
| 20260509034638 | 56 | 209 | 5.0 | 10.0 | 0.00 | 0.00 | 0.00 | 60 | 1022.7 |
| 20260509033037 | 57 | 210 | 3.0 | 8.0 | 0.00 | 0.00 | 0.00 | 58 | 1022.5 |
| 20260509031536 | 59 | 222 | 3.0 | 10.0 | 0.00 | 0.00 | 0.00 | 55 | 1022.3 |
| 20260509030111 | 60 | 238 | 5.0 | 12.0 | 0.00 | 0.00 | 0.00 | 53 | 1022.0 |
| 20260509021534 | 63 | 265 | 6.0 | 13.0 | 0.00 | 0.00 | 0.00 | 47 | 1021.7 |
| 20260509014533 | 64 | 277 | 7.0 | 14.0 | 0.00 | 0.00 | 0.00 | 43 | 1021.4 |
| 20260509013035 | 65 | 253 | 7.0 | 14.0 | 0.00 | 0.00 | 0.00 | 41 | 1021.3 |
| 20260509011536 | 65 | 244 | 9.0 | 19.0 | 0.00 | 0.00 | 0.00 | 40 | 1021.4 |
| 20260509004536 | 66 | 240 | 8.0 | 17.0 | 0.00 | 0.00 | 0.00 | 37 | 1021.2 |
| 20260509003034 | 67 | 242 | 8.0 | 19.0 | 0.00 | 0.00 | 0.00 | 35 | 1021.1 |
| 20260509001533 | 67 | 256 | 7.0 | 16.0 | 0.00 | 0.00 | 0.00 | 33 | 1020.9 |
| 20260508234534 | 68 | 258 | 7.0 | 17.0 | 0.00 | 0.00 | 0.00 | 32 | 1020.9 |
| 20260508231532 | 68 | 260 | 8.0 | 17.0 | 0.00 | 0.00 | 0.00 | 30 | 1020.8 |
| 20260508230035 | 69 | 266 | 6.0 | 15.0 | 0.00 | 0.00 | 0.00 | 31 | 1020.8 |
| 20260508224534 | 68 | 322 | 4.0 | 12.0 | 0.00 | 0.00 | 0.00 | 36 | 1020.8 |
| 20260508223111 | 68 | 268 | 6.0 | 18.0 | 0.00 | 0.00 | 0.00 | 29 | 1020.8 |
| 20260508220147 | 67 | 249 | 9.0 | 19.0 | 0.00 | 0.00 | 0.00 | 29 | 1020.8 |
| 20260508213037 | 66 | 252 | 8.0 | 22.0 | 0.00 | 0.00 | 0.00 | 32 | 1020.9 |
| 20260508211534 | 65 | 271 | 7.0 | 22.0 | 0.00 | 0.00 | 0.00 | 36 | 1021.0 |
| 20260508210035 | 65 | 261 | 8.0 | 18.0 | 0.00 | 0.00 | 0.00 | 31 | 1020.9 |
| 20260508204536 | 65 | 263 | 8.0 | 21.0 | 0.00 | 0.00 | 0.00 | 31 | 1020.9 |
| 20260508203037 | 65 | 263 | 6.0 | 17.0 | 0.00 | 0.00 | 0.00 | 33 | 1020.8 |
| 20260508201535 | 64 | 259 | 8.0 | 16.0 | 0.00 | 0.00 | 0.00 | 37 | 1020.8 |
| 20260508200035 | 63 | 346 | 4.0 | 13.0 | 0.00 | 0.00 | 0.00 | 47 | 1020.8 |
| 20260508194534 | 63 | 15 | 4.0 | 10.0 | 0.00 | 0.00 | 0.00 | 49 | 1020.8 |
| 20260508193034 | 62 | 14 | 6.0 | 12.0 | 0.00 | 0.00 | 0.00 | 50 | 1020.8 |
| 20260508191535 | 61 | 30 | 5.0 | 10.0 | 0.00 | 0.00 | 0.00 | 51 | 1020.9 |
| 20260508190031 | 59 | 37 | 2.0 | 8.0 | 0.00 | 0.00 | 0.00 | 54 | 1021.0 |
| 20260508183143 | 54 | 53 | 3.0 | 8.0 | 0.00 | 0.00 | 0.00 | 62 | 1021.0 |
| 20260508181536 | 53 | 66 | 3.0 | 7.0 | 0.00 | 0.00 | 0.00 | 64 | 1020.8 |
| 20260508180031 | 52 | 72 | 2.0 | 6.0 | 0.00 | 0.00 | 0.00 | 65 | 1020.7 |
| 20260508173034 | 53 | 37 | 4.0 | 8.0 | 0.00 | 0.00 | 0.00 | 65 | 1020.4 |
| 20260508171535 | 54 | 48 | 3.0 | 7.0 | 0.00 | 0.00 | 0.00 | 64 | 1020.3 |
| 20260508170032 | 55 | 58 | 3.0 | 6.0 | 0.00 | 0.00 | 0.00 | 63 | 1020.3 |
| 20260508164536 | 56 | 19 | 2.0 | 7.0 | 0.00 | 0.00 | 0.00 | 61 | 1020.2 |
| 20260508161611 | 57 | 278 | 9.0 | 18.0 | 0.00 | 0.00 | 0.00 | 55 | 1020.3 |
| 20260508160036 | 57 | 264 | 9.0 | 20.0 | 0.00 | 0.00 | 0.00 | 55 | 1020.3 |
| 20260508154535 | 57 | 258 | 11.0 | 24.0 | 0.00 | 0.00 | 0.00 | 56 | 1020.2 |
| 20260508153036 | 57 | 254 | 10.0 | 24.0 | 0.00 | 0.00 | 0.00 | 59 | 1020.1 |
| 20260508151536 | 55 | 265 | 7.0 | 14.0 | 0.00 | 0.00 | 0.00 | 64 | 1019.9 |
| 20260508150036 | 52 | 19 | 4.0 | 11.0 | 0.00 | 0.00 | 0.00 | 67 | 1019.6 |
| 20260508144535 | 52 | 25 | 4.0 | 12.0 | 0.00 | 0.00 | 0.00 | 70 | 1019.4 |
| 20260508143032 | 51 | 339 | 2.0 | 6.0 | 0.00 | 0.00 | 0.00 | 71 | 1019.2 |
| 20260508141535 | 51 | 24 | 2.0 | 11.0 | 0.00 | 0.00 | 0.00 | 71 | 1018.9 |
| 20260508140037 | 51 | 22 | 3.0 | 8.0 | 0.00 | 0.00 | 0.00 | 71 | 1018.8 |
| 20260508134533 | 50 | 45 | 4.0 | 7.0 | 0.00 | 0.00 | 0.00 | 72 | 1018.7 |
| 20260508133034 | 50 | 88 | 2.0 | 7.0 | 0.00 | 0.00 | 0.00 | 71 | 1018.6 |
| 20260508131536 | 50 | 50 | 1.0 | 6.0 | 0.00 | 0.00 | 0.00 | 70 | 1018.5 |
| 20260508130145 | 50 | 113 | 3.0 | 8.0 | 0.00 | 0.00 | 0.00 | 70 | 1018.4 |
| 20260508124537 | 50 | 63 | 4.0 | 8.0 | 0.00 | 0.00 | 0.00 | 69 | 1018.3 |
| 20260508121532 | 48 | 66 | 3.0 | 11.0 | 0.00 | 0.00 | 0.00 | 71 | 1018.2 |
| 20260508120110 | 46 | 112 | 1.0 | 6.0 | 0.00 | 0.00 | 0.00 | 77 | 1018.1 |
| 20260508114610 | 46 | 136 | 0.0 | 4.0 | 0.00 | 0.00 | 0.00 | 76 | 1018.1 |
| 20260508113033 | 47 | 139 | 1.0 | 4.0 | 0.00 | 0.00 | 0.00 | 75 | 1018.0 |
| 20260508111533 | 47 | 150 | 2.0 | 4.0 | 0.00 | 0.00 | 0.00 | 75 | 1017.9 |
| 20260508104533 | 46 | 128 | 1.0 | 4.0 | 0.00 | 0.00 | 0.00 | 76 | 1017.8 |
| 20260508100036 | 46 | 201 | 1.0 | 4.0 | 0.00 | 0.00 | 0.00 | 73 | 1017.8 |
| 20260508094537 | 47 | 151 | 2.0 | 4.0 | 0.00 | 0.00 | 0.00 | 71 | 1017.7 |
| 20260508091535 | 46 | 162 | 2.0 | 4.0 | 0.00 | 0.00 | 0.00 | 73 | 1017.6 |
| 20260508090032 | 47 | 177 | 1.0 | 5.0 | 0.00 | 0.00 | 0.00 | 70 | 1017.7 |
| 20260508084534 | 48 | 174 | 2.0 | 5.0 | 0.00 | 0.00 | 0.00 | 67 | 1017.7 |
| 20260508083035 | 49 | 164 | 2.0 | 3.0 | 0.00 | 0.00 | 0.00 | 63 | 1017.7 |
| 20260508081530 | 51 | 168 | 2.0 | 4.0 | 0.00 | 0.00 | 0.00 | 59 | 1017.7 |
| 20260508080110 | 52 | 104 | 1.0 | 5.0 | 0.00 | 0.00 | 0.00 | 56 | 1017.7 |